Tracking 20626 objects as of 10-Apr-2020
HD Live streaming from Space Station
objects crossing your sky now

PEGASUS DEB

Track PEGASUS DEB now!
10-day predictions


NORAD ID: 24213
Int'l Code: 1994-029KL
Perigee: 546.9 km
Apogee: 1,406.4 km
Inclination: 81.5 °
Period: 104.5 minutes
Semi major axis: 7347 km
RCS: 0.0555 m2 (small)
Launch date: May 19, 1994
Source: United States (US)
Launch site: AIR FORCE WESTERN TEST RANGE (AFWTR)

Note: This is SATELLITE DEBRIS
aabbcc
Your satellite tracking list
Your tracking list is empty




NASA's NSSDC Master Catalog

Two Line Element Set (TLE):
1 24213U 94029KL  20100.89286477 +.00000593 +00000-0 +15268-3 0  9992
2 24213 081.4688 055.0104 0584896 151.9628 211.4388 13.78415543849353
Source of the keplerian elements: AFSPC